Year,Month,Day,Hour,Minute,Value (Times are PST for temperature in C)
2006,08,31,00,00,12.50
2006,08,31,00,01,12.50
2006,08,31,00,02,12.50
2006,08,31,00,03,12.50
2006,08,31,00,04,12.40
2006,08,31,00,05,12.40
2006,08,31,00,06,12.40
2006,08,31,00,07,12.30
2006,08,31,00,08,12.30
2006,08,31,00,09,12.30
2006,08,31,00,10,12.30
2006,08,31,00,11,12.30
2006,08,31,00,12,12.30
2006,08,31,01,02,12.10
2006,08,31,01,03,12.10
2006,08,31,01,04,12.10
2006,08,31,01,05,12.10
2006,08,31,01,06,12.10
2006,08,31,01,07,12.10
2006,08,31,01,08,12.10
2006,08,31,01,09,12.10
2006,08,31,01,10,12.10
2006,08,31,01,11,12.10
2006,08,31,01,12,12.10
2006,08,31,01,13,12.10
2006,08,31,01,14,12.10
2006,08,31,01,15,12.10
2006,08,31,01,16,12.10
2006,08,31,01,17,12.10
2006,08,31,01,18,12.00
2006,08,31,01,19,12.00
2006,08,31,01,20,12.00
2006,08,31,01,21,12.00
2006,08,31,01,22,12.00
2006,08,31,01,23,12.00
2006,08,31,01,24,12.00
2006,08,31,01,25,12.00
2006,08,31,01,26,12.00
2006,08,31,01,27,12.00
2006,08,31,01,28,12.00
2006,08,31,01,29,12.00
2006,08,31,01,30,12.00
2006,08,31,01,31,12.00
2006,08,31,01,32,12.00
2006,08,31,01,33,11.90
2006,08,31,01,34,11.90
2006,08,31,01,35,11.90
2006,08,31,01,36,11.90
2006,08,31,01,37,11.90
2006,08,31,01,38,11.90
2006,08,31,01,39,11.90
2006,08,31,01,40,11.90
2006,08,31,01,41,11.90
2006,08,31,01,42,11.90
2006,08,31,01,43,11.90
2006,08,31,01,44,11.90
2006,08,31,01,45,11.90
2006,08,31,01,46,11.90
2006,08,31,01,47,11.90
2006,08,31,01,48,11.90
2006,08,31,01,49,11.90
2006,08,31,01,50,11.90
2006,08,31,01,51,11.90
2006,08,31,01,52,11.80
2006,08,31,01,53,11.80
2006,08,31,01,54,11.80
2006,08,31,01,55,11.80
2006,08,31,01,56,11.80
2006,08,31,01,57,11.80
2006,08,31,01,58,11.80
2006,08,31,01,59,11.80
2006,08,31,02,00,11.80
2006,08,31,02,01,11.80
2006,08,31,02,02,11.80
2006,08,31,02,03,11.80
2006,08,31,02,04,11.80
2006,08,31,02,05,11.80
2006,08,31,02,06,11.80
2006,08,31,02,07,11.80
2006,08,31,02,08,11.80
2006,08,31,02,09,11.80
2006,08,31,02,10,11.80
2006,08,31,02,11,11.80
2006,08,31,02,12,11.80
2006,08,31,02,13,11.80
2006,08,31,02,14,11.80
2006,08,31,02,15,11.80
2006,08,31,02,16,11.80
2006,08,31,02,17,11.80
2006,08,31,02,18,11.80
2006,08,31,02,19,11.80
2006,08,31,02,20,11.80
2006,08,31,02,21,11.80
2006,08,31,02,22,11.80
2006,08,31,02,23,11.80
2006,08,31,02,24,11.80
2006,08,31,02,25,11.80
2006,08,31,02,26,11.80
2006,08,31,02,27,11.80
2006,08,31,02,28,11.80
2006,08,31,02,29,11.80
2006,08,31,02,30,11.80
2006,08,31,02,31,11.80
2006,08,31,02,32,11.80
2006,08,31,02,33,11.80
2006,08,31,02,34,11.70
2006,08,31,02,35,11.70
2006,08,31,02,36,11.70
2006,08,31,02,37,11.70
2006,08,31,02,38,11.70
2006,08,31,02,39,11.70
2006,08,31,02,40,11.70
2006,08,31,02,41,11.70
2006,08,31,02,42,11.70
2006,08,31,02,43,11.70
2006,08,31,02,44,11.70
2006,08,31,02,45,11.70
2006,08,31,02,46,11.70
2006,08,31,02,47,11.70
2006,08,31,02,48,11.70
2006,08,31,02,49,11.70
2006,08,31,02,50,11.70
2006,08,31,02,51,11.70
2006,08,31,02,52,11.70
2006,08,31,02,53,11.70
2006,08,31,02,54,11.70
2006,08,31,02,55,11.70
2006,08,31,02,56,11.70
2006,08,31,02,57,11.70
2006,08,31,02,58,11.70
2006,08,31,02,59,11.70
2006,08,31,03,00,11.70
2006,08,31,03,01,11.70
2006,08,31,03,02,11.70
2006,08,31,03,03,11.70
2006,08,31,03,04,11.60
2006,08,31,03,05,11.60
2006,08,31,03,06,11.60
2006,08,31,03,07,11.60
2006,08,31,03,08,11.60
2006,08,31,03,09,11.60
2006,08,31,03,10,11.60
2006,08,31,03,11,11.60
2006,08,31,03,12,11.60
2006,08,31,03,13,11.60
2006,08,31,03,14,11.60
2006,08,31,03,15,11.60
2006,08,31,03,16,11.40
2006,08,31,03,17,11.40
2006,08,31,03,18,11.40
2006,08,31,03,19,11.40
2006,08,31,03,20,11.40
2006,08,31,03,21,11.40
2006,08,31,03,22,11.40
2006,08,31,03,23,11.40
2006,08,31,03,24,11.40
2006,08,31,03,25,11.40
2006,08,31,03,26,11.40
2006,08,31,03,27,11.40
2006,08,31,03,28,11.40
2006,08,31,03,29,11.40
2006,08,31,03,30,11.40
2006,08,31,03,31,11.40
2006,08,31,03,32,11.40
2006,08,31,03,33,11.40
2006,08,31,03,34,11.40
2006,08,31,03,35,11.40
2006,08,31,03,36,11.40
2006,08,31,03,37,11.40
2006,08,31,03,38,11.40
2006,08,31,03,39,11.40
2006,08,31,03,40,11.40
2006,08,31,03,41,11.30
2006,08,31,03,42,11.30
2006,08,31,03,43,11.30
2006,08,31,03,44,11.30
2006,08,31,03,45,11.20
2006,08,31,03,46,11.20
2006,08,31,03,47,11.20
2006,08,31,03,48,11.20
2006,08,31,03,49,11.20
2006,08,31,03,50,11.20
2006,08,31,03,51,11.20
2006,08,31,03,52,11.20
2006,08,31,03,53,11.20
2006,08,31,03,54,11.10
2006,08,31,03,55,11.10
2006,08,31,03,56,11.10
2006,08,31,03,57,11.10
2006,08,31,03,58,11.10
2006,08,31,03,59,11.10
2006,08,31,04,00,11.10
2006,08,31,04,01,11.10
2006,08,31,04,02,11.10
2006,08,31,04,03,11.10
2006,08,31,04,04,11.00
2006,08,31,04,05,10.90
2006,08,31,04,06,10.90
2006,08,31,04,07,10.90
2006,08,31,04,08,10.90
2006,08,31,04,09,10.90
2006,08,31,04,10,10.80
2006,08,31,04,11,10.80
2006,08,31,04,12,10.80
2006,08,31,04,13,10.70
2006,08,31,04,14,10.70
2006,08,31,04,15,10.70
2006,08,31,04,16,10.70
2006,08,31,04,17,10.60
2006,08,31,04,18,10.60
2006,08,31,04,19,10.60
2006,08,31,04,20,10.60
2006,08,31,04,21,10.60
2006,08,31,04,22,10.60
2006,08,31,04,23,10.60
2006,08,31,04,24,10.60
2006,08,31,04,25,10.60
2006,08,31,04,26,10.50
2006,08,31,04,27,10.40
2006,08,31,04,28,10.40
2006,08,31,04,29,10.40
2006,08,31,04,30,10.40
2006,08,31,04,31,10.40
2006,08,31,04,32,10.40
2006,08,31,04,33,10.40
2006,08,31,04,34,10.40
2006,08,31,04,35,10.40
2006,08,31,04,36,10.40
2006,08,31,04,37,10.30
2006,08,31,04,38,10.30
2006,08,31,04,39,10.30
2006,08,31,04,40,10.30
2006,08,31,04,41,10.30
2006,08,31,04,42,10.30
2006,08,31,04,43,10.30
2006,08,31,04,44,10.30
2006,08,31,04,45,10.20
2006,08,31,04,46,10.20
2006,08,31,04,47,10.20
2006,08,31,04,48,10.20
2006,08,31,04,49,10.20
2006,08,31,04,50,10.20
2006,08,31,04,51,10.20
2006,08,31,04,52,10.20
2006,08,31,04,53,10.20
2006,08,31,04,54,10.20
2006,08,31,04,55,10.20
2006,08,31,04,56,10.20
2006,08,31,04,57,10.20
2006,08,31,04,58,10.30
2006,08,31,04,59,10.30
2006,08,31,05,00,10.30
2006,08,31,05,01,10.30
2006,08,31,05,02,10.30
2006,08,31,05,03,10.30
2006,08,31,05,04,10.30
2006,08,31,05,05,10.30
2006,08,31,05,06,10.40
2006,08,31,05,07,10.40
2006,08,31,05,08,10.40
2006,08,31,05,09,10.40
2006,08,31,05,10,10.40
2006,08,31,05,11,10.40
2006,08,31,05,12,10.40
2006,08,31,05,13,10.40
2006,08,31,05,14,10.40
2006,08,31,05,15,10.40
2006,08,31,05,16,10.40
2006,08,31,05,17,10.40
2006,08,31,05,18,10.30
2006,08,31,05,19,10.30
2006,08,31,05,20,10.30
2006,08,31,05,21,10.30
2006,08,31,05,22,10.30
2006,08,31,05,23,10.30
2006,08,31,05,24,10.30
2006,08,31,05,25,10.30
2006,08,31,05,26,10.30
2006,08,31,05,27,10.20
2006,08,31,05,28,10.20
2006,08,31,05,29,10.20
2006,08,31,05,30,10.20
2006,08,31,05,31,10.20
2006,08,31,05,32,10.20
2006,08,31,05,33,10.20
2006,08,31,05,34,10.20
2006,08,31,05,35,10.20
2006,08,31,05,36,10.20
2006,08,31,05,37,10.10
2006,08,31,05,38,10.10
2006,08,31,05,39,10.10
2006,08,31,05,40,10.10
2006,08,31,05,41,10.10
2006,08,31,05,42,10.10
2006,08,31,05,43,10.10
2006,08,31,05,44,10.10
2006,08,31,05,45,10.10
2006,08,31,05,46,10.10
2006,08,31,05,47,10.10
2006,08,31,05,48,10.10
2006,08,31,05,49,10.10
2006,08,31,05,50,10.10
2006,08,31,05,51,10.10
2006,08,31,05,52,10.10
2006,08,31,05,53,10.00
2006,08,31,05,54,9.90
2006,08,31,05,55,9.90
2006,08,31,05,56,9.90
2006,08,31,05,57,9.90
2006,08,31,05,58,9.90
2006,08,31,05,59,9.90
2006,08,31,06,00,9.90
2006,08,31,06,01,9.90
2006,08,31,06,02,9.90
2006,08,31,06,03,9.90
2006,08,31,06,04,9.90
2006,08,31,06,05,9.90
2006,08,31,06,06,9.80
2006,08,31,06,07,9.80
2006,08,31,06,08,9.80
2006,08,31,06,09,9.80
2006,08,31,06,10,9.80
2006,08,31,06,11,9.70
2006,08,31,06,12,9.70
2006,08,31,06,13,9.70
2006,08,31,06,14,9.70
2006,08,31,06,15,9.70
2006,08,31,06,16,9.70
2006,08,31,06,17,9.70
2006,08,31,06,18,9.70
2006,08,31,06,19,9.70
2006,08,31,06,20,9.70
2006,08,31,06,21,9.70
2006,08,31,06,22,9.70
2006,08,31,06,23,9.70
2006,08,31,06,24,9.70
2006,08,31,06,25,9.70
2006,08,31,06,26,9.60
2006,08,31,06,27,9.60
2006,08,31,06,28,9.60
2006,08,31,06,29,9.60
2006,08,31,06,30,9.60
2006,08,31,06,31,9.60
2006,08,31,06,32,9.60
2006,08,31,06,33,9.60
2006,08,31,06,34,9.60
2006,08,31,06,35,9.60
2006,08,31,06,36,9.60
2006,08,31,06,37,9.60
2006,08,31,06,38,9.60
2006,08,31,06,39,9.60
2006,08,31,06,40,9.60
2006,08,31,06,41,9.60
2006,08,31,06,42,9.60
2006,08,31,06,43,9.60
2006,08,31,06,44,9.60
2006,08,31,06,45,9.60
2006,08,31,06,46,9.60
2006,08,31,06,47,9.60
2006,08,31,06,48,9.60
2006,08,31,06,49,9.60
2006,08,31,06,50,9.60
2006,08,31,06,51,9.60
2006,08,31,06,52,9.70
2006,08,31,06,53,9.70
2006,08,31,06,54,9.70
2006,08,31,06,55,9.70
2006,08,31,06,56,9.70
2006,08,31,06,57,9.70
2006,08,31,06,58,9.80
2006,08,31,06,59,9.80
2006,08,31,07,00,9.80
2006,08,31,07,01,9.90
2006,08,31,07,02,9.90
2006,08,31,07,03,9.90
2006,08,31,07,04,9.90
2006,08,31,07,05,9.90
2006,08,31,07,06,9.90
2006,08,31,07,07,9.90
2006,08,31,07,08,10.00
2006,08,31,07,09,10.10
2006,08,31,07,10,10.10
2006,08,31,07,11,10.10
2006,08,31,07,12,10.10
2006,08,31,07,13,10.10
2006,08,31,07,14,10.10
2006,08,31,07,15,10.10
2006,08,31,07,16,10.10
2006,08,31,07,17,10.10
2006,08,31,07,18,10.10
2006,08,31,07,19,10.20
2006,08,31,07,20,10.20
2006,08,31,07,21,10.20
2006,08,31,07,22,10.20
2006,08,31,07,23,10.30
2006,08,31,07,24,10.30
2006,08,31,07,25,10.30
2006,08,31,07,26,10.40
2006,08,31,07,27,10.40
2006,08,31,07,28,10.40
2006,08,31,07,29,10.40
2006,08,31,07,30,10.50
2006,08,31,07,31,10.60
2006,08,31,07,32,10.60
2006,08,31,07,33,10.60
2006,08,31,07,34,10.70
2006,08,31,07,35,10.70
2006,08,31,07,36,10.80
2006,08,31,07,37,10.80
2006,08,31,07,38,10.90
2006,08,31,07,39,10.90
2006,08,31,07,40,11.00
2006,08,31,07,41,11.10
2006,08,31,07,42,11.10
2006,08,31,07,43,11.20
2006,08,31,07,44,11.20
2006,08,31,07,45,11.30
2006,08,31,07,46,11.30
2006,08,31,07,47,11.40
2006,08,31,07,48,11.40
2006,08,31,07,49,11.50
2006,08,31,07,50,11.60
2006,08,31,07,51,11.60
2006,08,31,07,52,11.70
2006,08,31,07,53,11.80
2006,08,31,07,54,11.80
2006,08,31,07,55,11.90
2006,08,31,07,56,11.90
2006,08,31,07,57,12.00
2006,08,31,07,58,12.10
2006,08,31,07,59,12.20
2006,08,31,08,00,12.30
2006,08,31,08,01,12.40
2006,08,31,08,02,12.50
2006,08,31,08,03,12.60
2006,08,31,08,04,12.60
2006,08,31,08,05,12.70
2006,08,31,08,06,12.80
2006,08,31,08,07,12.80
2006,08,31,08,08,12.90
2006,08,31,08,09,13.00
2006,08,31,08,10,13.10
2006,08,31,08,11,13.20
2006,08,31,08,12,13.30
2006,08,31,08,13,13.30
2006,08,31,08,14,13.40
2006,08,31,08,15,13.40
2006,08,31,08,16,13.50
2006,08,31,08,17,13.50
2006,08,31,08,18,13.60
2006,08,31,08,19,13.70
2006,08,31,08,20,13.80
2006,08,31,08,21,13.80
2006,08,31,08,22,13.90
2006,08,31,08,23,14.00
2006,08,31,08,24,14.10
2006,08,31,08,25,14.20
2006,08,31,08,26,14.30
2006,08,31,08,27,14.40
2006,08,31,08,28,14.50
2006,08,31,08,29,14.50
2006,08,31,08,30,14.40
2006,08,31,08,31,14.40
2006,08,31,08,32,14.40
2006,08,31,08,33,14.40
2006,08,31,08,34,14.40
2006,08,31,08,35,14.40
2006,08,31,08,36,14.50
2006,08,31,08,37,14.50
2006,08,31,08,38,14.50
2006,08,31,08,39,14.60
2006,08,31,08,40,14.60
2006,08,31,08,41,14.60
2006,08,31,08,42,14.60
2006,08,31,08,43,14.60
2006,08,31,08,44,14.60
2006,08,31,08,45,14.60
2006,08,31,08,46,14.60
2006,08,31,08,47,14.70
2006,08,31,08,48,14.70
2006,08,31,08,49,14.70
2006,08,31,08,50,14.60
2006,08,31,08,51,14.60
2006,08,31,08,52,14.60
2006,08,31,08,53,14.70
2006,08,31,08,54,14.70
2006,08,31,08,55,14.80
2006,08,31,08,56,14.80
2006,08,31,08,57,14.80
2006,08,31,08,58,14.80
2006,08,31,08,59,14.80
2006,08,31,09,00,14.80
2006,08,31,09,01,14.80
2006,08,31,09,02,14.80
2006,08,31,09,03,14.80
2006,08,31,09,04,14.90
2006,08,31,09,05,15.00
2006,08,31,09,06,15.10
2006,08,31,09,07,15.20
2006,08,31,09,08,15.20
2006,08,31,09,09,15.20
2006,08,31,09,10,15.30
2006,08,31,09,11,15.30
2006,08,31,09,12,15.40
2006,08,31,09,13,15.50
2006,08,31,09,14,15.50
2006,08,31,09,15,15.60
2006,08,31,09,16,15.60
2006,08,31,09,17,15.60
2006,08,31,09,18,15.60
2006,08,31,09,19,15.60
2006,08,31,09,20,15.60
2006,08,31,09,21,15.60
2006,08,31,09,22,15.60
2006,08,31,09,23,15.50
2006,08,31,09,24,15.50
2006,08,31,09,25,15.50
2006,08,31,09,26,15.60
2006,08,31,09,27,15.60
2006,08,31,09,28,15.70
2006,08,31,09,29,15.70
2006,08,31,09,30,15.70
2006,08,31,09,31,15.70
2006,08,31,09,32,15.80
2006,08,31,09,33,15.80
2006,08,31,09,34,15.90
2006,08,31,09,35,16.00
2006,08,31,09,36,16.10
2006,08,31,09,37,16.10
2006,08,31,09,38,16.20
2006,08,31,09,39,16.20
2006,08,31,09,40,16.30
2006,08,31,09,41,16.30
2006,08,31,09,42,16.30
2006,08,31,09,43,16.30
2006,08,31,09,44,16.40
2006,08,31,09,45,16.40
2006,08,31,09,46,16.40
2006,08,31,09,47,16.40
2006,08,31,09,48,16.40
2006,08,31,09,49,16.30
2006,08,31,09,50,16.30
2006,08,31,09,51,16.30
2006,08,31,09,52,16.20
2006,08,31,09,53,16.10
2006,08,31,09,54,16.10
2006,08,31,09,55,16.10
2006,08,31,09,56,15.90
2006,08,31,09,57,15.90
2006,08,31,09,58,16.00
2006,08,31,09,59,16.00
2006,08,31,10,00,15.90
2006,08,31,10,01,15.90
2006,08,31,10,02,16.00
2006,08,31,10,03,15.90
2006,08,31,10,04,16.10
2006,08,31,10,05,16.10
2006,08,31,10,06,16.20
2006,08,31,10,07,16.20
2006,08,31,10,08,16.20
2006,08,31,10,09,16.20
2006,08,31,10,10,16.10
2006,08,31,10,11,16.10
2006,08,31,10,12,16.10
2006,08,31,10,13,16.10
2006,08,31,10,14,16.10
2006,08,31,10,15,16.10
2006,08,31,10,16,16.00
2006,08,31,10,17,15.90
2006,08,31,10,18,15.90
2006,08,31,10,19,16.10
2006,08,31,10,20,16.10
2006,08,31,10,21,16.20
2006,08,31,10,22,16.20
2006,08,31,10,23,16.20
2006,08,31,10,24,16.20
2006,08,31,10,25,16.10
2006,08,31,10,26,16.00
2006,08,31,10,27,15.90
2006,08,31,10,28,15.90
2006,08,31,10,29,15.90
2006,08,31,10,30,16.00
2006,08,31,10,31,16.10
2006,08,31,10,32,16.10
2006,08,31,10,33,16.10
2006,08,31,10,34,16.00
2006,08,31,10,35,15.80
2006,08,31,10,36,15.70
2006,08,31,10,37,15.80
2006,08,31,10,38,15.80
2006,08,31,10,39,15.80
2006,08,31,10,40,15.90
2006,08,31,10,41,15.90
2006,08,31,10,42,16.10
2006,08,31,10,43,16.10
2006,08,31,10,44,16.10
2006,08,31,10,45,16.10
2006,08,31,10,46,16.10
2006,08,31,10,47,16.20
2006,08,31,10,48,16.20
2006,08,31,10,49,16.30
2006,08,31,10,50,16.20
2006,08,31,10,51,16.20
2006,08,31,10,52,16.20
2006,08,31,10,53,16.30
2006,08,31,10,54,16.20
2006,08,31,10,55,16.20
2006,08,31,10,56,16.20
2006,08,31,10,57,16.20
2006,08,31,10,58,16.20
2006,08,31,10,59,16.20
2006,08,31,11,00,16.30
2006,08,31,11,01,16.30
2006,08,31,11,02,16.30
2006,08,31,11,03,16.20
2006,08,31,11,04,16.20
2006,08,31,11,05,16.30
2006,08,31,11,06,16.40
2006,08,31,11,07,16.40
2006,08,31,11,08,16.40
2006,08,31,11,09,16.40
2006,08,31,11,10,16.30
2006,08,31,11,11,16.20
2006,08,31,11,12,16.20
2006,08,31,11,13,16.30
2006,08,31,11,14,16.30
2006,08,31,11,15,16.30
2006,08,31,11,16,16.30
2006,08,31,11,17,16.40
2006,08,31,11,18,16.50
2006,08,31,11,19,16.60
2006,08,31,11,20,16.60
2006,08,31,11,21,16.60
2006,08,31,11,22,16.50
2006,08,31,11,23,16.40
2006,08,31,11,24,16.30
2006,08,31,11,25,16.10
2006,08,31,11,26,16.10
2006,08,31,11,27,15.90
2006,08,31,11,28,15.90
2006,08,31,11,29,15.90
2006,08,31,11,30,15.90
2006,08,31,11,31,15.90
2006,08,31,11,32,16.00
2006,08,31,11,33,16.10
2006,08,31,11,34,16.10
2006,08,31,11,35,16.10
2006,08,31,11,36,16.10
2006,08,31,11,37,16.00
2006,08,31,11,38,15.90
2006,08,31,11,39,15.90
2006,08,31,11,40,15.90
2006,08,31,11,41,15.80
2006,08,31,11,42,15.80
2006,08,31,11,43,15.80
2006,08,31,11,44,15.80
2006,08,31,11,45,15.80
2006,08,31,11,46,15.80
2006,08,31,11,47,15.90
2006,08,31,11,48,15.90
2006,08,31,11,49,15.90
2006,08,31,11,50,15.80
2006,08,31,11,51,15.90
2006,08,31,11,52,16.00
2006,08,31,11,53,16.10
2006,08,31,11,54,16.10
2006,08,31,11,55,16.10
2006,08,31,11,56,16.20
2006,08,31,11,57,16.30
2006,08,31,11,58,16.30
2006,08,31,11,59,16.30
2006,08,31,12,00,16.40
2006,08,31,12,01,16.50
2006,08,31,12,02,16.60
2006,08,31,12,03,16.70
2006,08,31,12,04,16.70
2006,08,31,12,05,16.70
2006,08,31,12,06,16.80
2006,08,31,12,07,16.80
2006,08,31,12,08,16.80
2006,08,31,12,09,16.90
2006,08,31,12,10,16.90
2006,08,31,12,11,16.80
2006,08,31,12,12,16.70
2006,08,31,12,13,16.70
2006,08,31,12,14,16.70
2006,08,31,12,15,16.50
2006,08,31,12,16,16.40
2006,08,31,12,17,16.30
2006,08,31,12,18,16.20
2006,08,31,12,19,16.20
2006,08,31,12,20,16.20
2006,08,31,12,21,16.30
2006,08,31,12,22,16.20
2006,08,31,12,23,16.30
2006,08,31,12,24,16.30
2006,08,31,12,25,16.30
2006,08,31,12,26,16.40
2006,08,31,12,27,16.40
2006,08,31,12,28,16.50
2006,08,31,12,29,16.50
2006,08,31,12,30,16.40
2006,08,31,12,31,16.30
2006,08,31,12,32,16.30
2006,08,31,12,33,16.20
2006,08,31,12,34,16.10
2006,08,31,12,35,16.10
2006,08,31,12,36,16.10
2006,08,31,12,37,16.20
2006,08,31,12,38,16.30
2006,08,31,12,39,16.30
2006,08,31,12,40,16.30
2006,08,31,12,41,16.40
2006,08,31,12,42,16.50
2006,08,31,12,43,16.60
2006,08,31,12,44,16.60
2006,08,31,12,45,16.60
2006,08,31,12,46,16.60
2006,08,31,12,47,16.70
2006,08,31,12,48,16.60
2006,08,31,12,49,16.60
2006,08,31,12,50,16.70
2006,08,31,12,51,16.60
2006,08,31,12,52,16.70
2006,08,31,12,53,16.70
2006,08,31,12,54,16.70
2006,08,31,12,55,16.60
2006,08,31,12,56,16.50
2006,08,31,12,57,16.40
2006,08,31,12,58,16.50
2006,08,31,12,59,16.60
2006,08,31,13,00,16.70
2006,08,31,13,01,16.70
2006,08,31,13,02,16.70
2006,08,31,13,03,16.70
2006,08,31,13,04,16.70
2006,08,31,13,05,16.80
2006,08,31,13,06,16.70
2006,08,31,13,07,16.70
2006,08,31,13,08,16.70
2006,08,31,13,09,16.70
2006,08,31,13,10,16.70
2006,08,31,13,11,16.70
2006,08,31,13,12,16.70
2006,08,31,13,13,16.70
2006,08,31,13,14,16.70
2006,08,31,13,15,16.70
2006,08,31,13,16,16.70
2006,08,31,13,17,16.70
2006,08,31,13,18,16.70
2006,08,31,13,19,16.80
2006,08,31,13,20,16.90
2006,08,31,13,21,16.90
2006,08,31,13,22,16.90
2006,08,31,13,23,16.80
2006,08,31,13,24,16.80
2006,08,31,13,25,16.70
2006,08,31,13,26,16.70
2006,08,31,13,27,16.70
2006,08,31,13,28,16.70
2006,08,31,13,29,16.70
2006,08,31,13,30,16.70
2006,08,31,13,31,16.70
2006,08,31,13,32,16.80
2006,08,31,13,33,16.90
2006,08,31,13,34,17.00
2006,08,31,13,35,17.00
2006,08,31,13,36,17.00
2006,08,31,13,37,17.00
2006,08,31,13,38,17.10
2006,08,31,13,39,17.20
2006,08,31,13,40,17.20
2006,08,31,13,41,17.10
2006,08,31,13,42,17.00
2006,08,31,13,43,17.00
2006,08,31,13,44,16.90
2006,08,31,13,45,16.90
2006,08,31,13,46,16.90
2006,08,31,13,47,16.90
2006,08,31,13,48,17.00
2006,08,31,13,49,17.10
2006,08,31,13,50,17.10
2006,08,31,13,51,17.10
2006,08,31,13,52,17.10
2006,08,31,13,53,17.10
2006,08,31,13,54,17.30
2006,08,31,13,55,17.30
2006,08,31,13,56,17.30
2006,08,31,13,57,17.30
2006,08,31,13,58,17.40
2006,08,31,13,59,17.60
2006,08,31,14,00,17.70
2006,08,31,14,01,17.80
2006,08,31,14,02,17.80
2006,08,31,14,03,17.80
2006,08,31,14,04,17.90
2006,08,31,14,05,17.90
2006,08,31,14,06,17.90
2006,08,31,14,07,17.90
2006,08,31,14,08,17.90
2006,08,31,14,09,17.90
2006,08,31,14,10,17.90
2006,08,31,14,11,17.90
2006,08,31,14,12,17.70
2006,08,31,14,13,17.50
2006,08,31,14,14,17.30
2006,08,31,14,15,17.30
2006,08,31,14,16,17.30
2006,08,31,14,17,17.40
2006,08,31,14,18,17.40
2006,08,31,14,19,17.50
2006,08,31,14,20,17.60
2006,08,31,14,21,17.70
2006,08,31,14,22,17.70
2006,08,31,14,23,17.70
2006,08,31,14,24,17.80
2006,08,31,14,25,17.80
2006,08,31,14,26,17.80
2006,08,31,14,27,18.00
2006,08,31,14,28,18.10
2006,08,31,14,29,18.00
2006,08,31,14,30,17.90
2006,08,31,14,31,17.70
2006,08,31,14,32,17.70
2006,08,31,14,33,17.60
2006,08,31,14,34,17.50
2006,08,31,14,35,17.60
2006,08,31,14,36,17.50
2006,08,31,14,37,17.50
2006,08,31,14,38,17.40
2006,08,31,14,39,17.50
2006,08,31,14,40,17.50
2006,08,31,14,41,17.60
2006,08,31,14,42,17.60
2006,08,31,14,43,17.70
2006,08,31,14,44,17.70
2006,08,31,14,45,17.80
2006,08,31,14,46,17.90
2006,08,31,14,47,17.90
2006,08,31,14,48,17.90
2006,08,31,14,49,17.90
2006,08,31,14,50,17.80
2006,08,31,14,51,17.80
2006,08,31,14,52,17.80
2006,08,31,14,53,17.70
2006,08,31,14,54,17.70
2006,08,31,14,55,17.60
2006,08,31,14,56,17.50
2006,08,31,14,57,17.40
2006,08,31,14,58,17.40
2006,08,31,14,59,17.30
2006,08,31,15,00,17.30
2006,08,31,15,01,17.40
2006,08,31,15,02,17.40
2006,08,31,15,03,17.40
2006,08,31,15,04,17.50
2006,08,31,15,05,17.50
2006,08,31,15,06,17.60
2006,08,31,15,07,17.70
2006,08,31,15,08,17.70
2006,08,31,15,09,17.80
2006,08,31,15,10,17.80
2006,08,31,15,11,17.80
2006,08,31,15,12,17.70
2006,08,31,15,13,17.70
2006,08,31,15,14,17.70
2006,08,31,15,15,17.60
2006,08,31,15,16,17.70
2006,08,31,15,17,17.80
2006,08,31,15,18,17.90
2006,08,31,15,19,18.00
2006,08,31,15,20,18.10
2006,08,31,15,21,18.20
2006,08,31,15,22,18.20
2006,08,31,15,23,18.20
2006,08,31,15,24,18.20
2006,08,31,15,25,18.20
2006,08,31,15,26,18.20
2006,08,31,15,27,18.20
2006,08,31,15,28,18.20
2006,08,31,15,29,18.20
2006,08,31,15,30,18.20
2006,08,31,15,31,18.20
2006,08,31,15,32,18.30
2006,08,31,15,33,18.40
2006,08,31,15,34,18.50
2006,08,31,15,35,18.40
2006,08,31,15,36,18.30
2006,08,31,15,37,18.30
2006,08,31,15,38,18.30
2006,08,31,15,39,18.40
2006,08,31,15,40,18.40
2006,08,31,15,41,18.40
2006,08,31,15,42,18.30
2006,08,31,15,43,18.30
2006,08,31,15,44,18.20
2006,08,31,15,45,18.20
2006,08,31,15,46,18.30
2006,08,31,15,47,18.30
2006,08,31,15,48,18.40
2006,08,31,15,49,18.50
2006,08,31,15,50,18.50
2006,08,31,15,51,18.50
2006,08,31,15,52,18.60
2006,08,31,15,53,18.60
2006,08,31,15,54,18.60
2006,08,31,15,55,18.60
2006,08,31,15,56,18.60
2006,08,31,15,57,18.80
2006,08,31,15,58,19.00
2006,08,31,15,59,19.10
2006,08,31,16,00,19.20
2006,08,31,16,01,19.30
2006,08,31,16,02,19.30
2006,08,31,16,03,19.20
2006,08,31,16,04,19.10
2006,08,31,16,05,19.10
2006,08,31,16,06,18.90
2006,08,31,16,07,18.90
2006,08,31,16,08,18.80
2006,08,31,16,09,18.80
2006,08,31,16,10,18.90
2006,08,31,16,11,19.00
2006,08,31,16,12,19.10
2006,08,31,16,13,19.30
2006,08,31,16,14,19.50
2006,08,31,16,15,19.60
2006,08,31,16,16,19.60
2006,08,31,16,17,19.60
2006,08,31,16,18,19.80
2006,08,31,16,19,19.80
2006,08,31,16,20,19.90
2006,08,31,16,21,19.90
2006,08,31,16,22,20.00
2006,08,31,16,23,20.10
2006,08,31,16,24,20.10
2006,08,31,16,25,19.90
2006,08,31,16,26,19.90
2006,08,31,16,27,19.90
2006,08,31,16,28,19.80
2006,08,31,16,29,19.70
2006,08,31,16,30,19.70
2006,08,31,16,31,19.60
2006,08,31,16,32,19.60
2006,08,31,16,33,19.60
2006,08,31,16,34,19.60
2006,08,31,16,35,19.70
2006,08,31,16,36,19.70
2006,08,31,16,37,19.70
2006,08,31,16,38,19.70
2006,08,31,16,39,19.60
2006,08,31,16,40,19.70
2006,08,31,16,41,19.70
2006,08,31,16,42,19.70
2006,08,31,16,43,19.60
2006,08,31,16,44,19.60
2006,08,31,16,45,19.60
2006,08,31,16,46,19.50
2006,08,31,16,47,19.60
2006,08,31,16,48,19.60
2006,08,31,16,49,19.60
2006,08,31,16,50,19.50
2006,08,31,16,51,19.60
2006,08,31,16,52,19.60
2006,08,31,16,53,19.50
2006,08,31,16,54,19.50
2006,08,31,16,55,19.50
2006,08,31,16,56,19.40
2006,08,31,16,57,19.30
2006,08,31,16,58,19.30
2006,08,31,16,59,19.20
2006,08,31,17,00,19.20
2006,08,31,17,01,19.10
2006,08,31,17,02,19.10
2006,08,31,17,03,19.10
2006,08,31,17,04,19.10
2006,08,31,17,05,19.00
2006,08,31,17,06,18.90
2006,08,31,17,07,18.90
2006,08,31,17,08,18.90
2006,08,31,17,09,18.90
2006,08,31,17,10,19.00
2006,08,31,17,11,19.10
2006,08,31,17,12,19.10
2006,08,31,17,13,19.10
2006,08,31,17,14,19.10
2006,08,31,17,15,19.10
2006,08,31,17,16,19.10
2006,08,31,17,17,19.10
2006,08,31,17,18,19.10
2006,08,31,17,19,19.10
2006,08,31,17,20,19.10
2006,08,31,17,21,19.10
2006,08,31,17,22,19.10
2006,08,31,17,23,19.10
2006,08,31,17,24,19.10
2006,08,31,17,25,19.10
2006,08,31,17,26,19.10
2006,08,31,17,27,19.10
2006,08,31,17,28,19.10
2006,08,31,17,29,19.00
2006,08,31,17,30,18.90
2006,08,31,17,31,18.90
2006,08,31,17,32,18.90
2006,08,31,17,33,18.90
2006,08,31,17,34,18.90
2006,08,31,17,35,18.90
2006,08,31,17,36,18.90
2006,08,31,17,37,18.90
2006,08,31,17,38,18.80
2006,08,31,17,39,18.80
2006,08,31,17,40,18.90
2006,08,31,17,41,18.90
2006,08,31,17,42,18.80
2006,08,31,17,43,18.80
2006,08,31,17,44,18.70
2006,08,31,17,45,18.70
2006,08,31,17,46,18.70
2006,08,31,17,47,18.80
2006,08,31,17,48,18.90
2006,08,31,17,49,18.90
2006,08,31,17,50,18.90
2006,08,31,17,51,18.90
2006,08,31,17,52,18.80
2006,08,31,17,53,18.80
2006,08,31,17,54,18.80
2006,08,31,17,55,18.70
2006,08,31,17,56,18.80
2006,08,31,17,57,18.80
2006,08,31,17,58,18.80
2006,08,31,17,59,18.80
2006,08,31,18,00,18.80
2006,08,31,18,01,18.80
2006,08,31,18,02,18.80
2006,08,31,18,03,18.80
2006,08,31,18,04,18.90
2006,08,31,18,05,18.90
2006,08,31,18,06,18.90
2006,08,31,18,07,18.90
2006,08,31,18,08,18.80
2006,08,31,18,09,18.80
2006,08,31,18,10,18.90
2006,08,31,18,11,18.90